DELTA 1 DEB, 10720

Orbit data source: Space-Track

DELTA 1 DEB, 10720 is space debris in SSO originally from a launch on Thu, 29 Jul 1976 UTC launched from the Air Force Western Test Range (AFWTR). Debris objects in space refer to the collection of defunct objects orbiting the Earth. Examples of debris include non-operational satellites, rocket bodies, and fragments generated from explosions, collisions, or faulty payload assembly.

Loading next visibility...
Identifier
10720, 1976-077AR
Orbit
SSO
Country
Flag of USUS
Related business
Manufacturer
Unknown
Mission
Spacecraft
Bus & Motor
Unknown
Mass
Unknown
Launch date (UTC)
1976-07-29 (50 years ago)
Launch vehicle
Unknown
Launch site
Air Force Western Test Range (AFWTR)
Object type
Payload
Rocket body
Debris
Shape & HBR
Unknown shape, 0.2 m
Radar Cross Section
Medium (>0.1 m² and <1 m²)

Expand to show TLE details & history
Last TLE update: 9 hours ago

TLE from 9 hours ago
0 DELTA 1 DEB
1 10720U 76077AR  26171.24200491 -.00000101  00000-0 -57031-3 0  9999
2 10720 102.1278 277.3539 0360123 179.2291 210.9584 12.05688712196280
Epoch: 2026-06-20T05:48Z
TLE epoch observation values (Epoch: 2026-06-20T05:48:29.224Z)
Latitude
27.49867°
Longitude
-84.61979°
Altitude
1,909.272 km
Speed
6.83 km/s
True Right ascension
18h 03m 50s
True Declination
27° 22' 39"
Sunlit
Object was in daylight at epoch
Visualization orbit readout
Latitude
Unknown
Longitude
Unknown
Altitude
Unknown
Speed
Unknown
Apparent Right ascension
Unknown
Apparent Declination
Unknown
Sunlit
N/A
Visualization observer readout
Local Sidereal Time
01:26:08
Azimuth
Unknown
Elevation
Unknown
Doppler factor
Unknown
Orbital elements
Apogee altitude
1,942.337 km
Perigee altitude
1,363.89 km
Semi-major axis
8,031.251 km
Eccentricity
0.03601
Inclination
102.1278°
RAAN
277.3539°
Arg. of periapsis
179.2291°
True anomaly
208.915°
Mean anomaly
210.9584°
Eccentric anomaly
209.92894°
Mean motion
3.01556 °/min
Orbital period
119.38 mins
BSTAR
-0.00057031
Loading maneuver chart data...
Computing Atmospheric mass density...
Loading historical data...
Loading historical data...
Loading historical data...
Loading historical data...
Loading historical data...
Loading historical data...
Loading historical data...

Documentation

Showing up to 5 results
|